Simultaneous Nadir Overpasses (SNOs) Predictions

Prediction of SNOs between GOES-16 and NOAA-20 Satellite Orbit:

Table of predicted SNOs for the next 14.0 days since TLE Epoch: 10/10/2025
Index Date Time (GOES-16) GOES-16 Lat,Lon NOAA-20 Lat,Lon Distance(km) Time Diff (sec)
1 10/12/2025 08:25:39 -0.03,-104.68 -0.00,-104.90 24.41 80
2 10/13/2025 08:04:13 -0.04,-104.68 -0.99,-100.36 491.80 80
3 10/14/2025 20:26:07 0.03,-104.68 -0.17,-105.65 110.96 80
4 10/15/2025 20:10:01 0.04,-104.67 0.82,-101.11 405.96 80
5 10/17/2025 08:31:47 -0.03,-104.67 0.34,-106.37 194.15 80
6 10/18/2025 08:10:20 -0.04,-104.66 -0.65,-101.83 322.65 80
7 10/19/2025 20:32:15 0.03,-104.66 -0.50,-107.12 279.85 80
8 10/20/2025 20:16:08 0.03,-104.66 0.50,-102.58 237.58 80
9 10/22/2025 08:37:54 -0.02,-104.66 0.71,-107.83 361.32 80
10 10/23/2025 08:16:28 -0.02,-104.66 -0.34,-103.30 155.51 80
